Location: Great Falls
(47.5000°N, 111.3000°W)
Time: 09:19:25
(UTC-06:00)

ISS - Visible Passes

Search period start: 18 September 2018 00:00
Search period end: 28 September 2018 00:00
Orbit: 402 x 408 km, 51.6° (Epoch: 19 September)

Date Brightness Start Highest point End Pass type
(mag) Time Alt. Az. Time Alt. Az. Time Alt. Az.
21 Sep -2.0 20:59:52 10° SSW 21:01:15 19° S 21:01:15 19° S visible
22 Sep -1.9 20:08:49 10° S 20:10:47 15° SE 20:12:00 13° ESE visible
22 Sep -1.6 21:43:33 10° WSW 21:44:43 20° WSW 21:44:43 20° WSW visible
23 Sep -3.6 20:51:38 10° SW 20:54:50 49° SSE 20:55:13 46° ESE visible
24 Sep -2.8 19:59:58 10° SSW 20:02:53 30° SE 20:05:33 12° E visible
24 Sep -2.5 21:35:58 10° W 21:38:14 39° W 21:38:14 39° W visible
25 Sep -3.9 20:43:50 10° WSW 20:47:07 88° NNW 20:48:26 34° ENE visible
25 Sep -0.5 22:20:44 10° WNW 22:21:06 12° WNW 22:21:06 12° WNW visible
26 Sep -3.7 19:51:49 10° SW 19:55:03 59° SSE 19:58:19 10° ENE visible
26 Sep -2.6 21:28:28 10° W 21:31:09 40° NW 21:31:09 40° NW visible
27 Sep -3.3 20:36:13 10° W 20:39:28 55° NNW 20:41:08 25° NE visible
27 Sep -0.6 22:13:12 10° WNW 22:13:48 14° WNW 22:13:48 14° WNW visible
